User: anonymous   Login
Location: Unspecified
(0.0000°N, 0.0000°E)
Time: 20:31:09
(UTC+00:00)
Language:

Intasat - Orbit

View from above orbital plane
View from above orbital plane
View from above satellite
View from above satellite

Ground track
Ground track

The orbit data is extracted from the following two-line orbital elements,

1 07531U 74089C   21065.92574729 -.00000050  00000-0 -25024-4 0  9997
2 07531 101.8409  40.3723 0011049 228.7766 151.9584 12.53481966118674
Epoch (UTC): 06 March 2021 22:13:04
Eccentricity: 0.0011049
inclination: 101.8409°
perigee height: 1441 km
apogee height: 1458 km
right ascension of ascending node: 40.3723°
argument of perigee: 228.7766°
revolutions per day: 12.53481966
mean anomaly at epoch: 151.9584°
orbit number at epoch: 11867

The dashed part of the orbit path shows where the satellite is in the earth's shadow,  

DLR